AirNav   Pilot Hours Calculator
 
 1087 users online  

PAEE Eek Airport
Eek, Alaska, USA

GOING TO EEK?


FAA INFORMATION EFFECTIVE 23 MAY 2019

Location

FAA Identifier: EEK
Lat/Long: 60-12-49.3000N / 162-02-38.0000W
60-12.821667N / 162-02.633333W
60.2136944 / -162.0438889
(estimated)
Elevation: 26.5 ft. / 8.1 m (surveyed)
Variation: 15E (2005)
From city: 1 mile W of EEK, AK
Time zone: UTC -8 (UTC -9 during Standard Time)
Zip code: 99578

Airport Operations

Airport use: Open to the public
Activation date: 06/1974
Control tower: no
ARTCC: ANCHORAGE CENTER
FSS: KENAI FLIGHT SERVICE STATION [907-283-8469]
NOTAMs facility: ENA (NOTAM-D service available)
Attendance: UNATNDD
Wind indicator: lighted
Segmented circle: yes
Lights: ACTVT MIRL RY 17/35; REIL & PAPI RYS 17 & 35- CTAF.
Beacon: white-green (lighted land airport)
Operates sunset to sunrise.

Airport Communications

CTAF: 122.8
  • APCH/DEP SVC PRVDD BY ANCHORAGE ARTCC (ZAN) ON 125.2/372.0 (BETHEL RCAG).

Nearby radio navigation aids

VOR radial/distance  VOR name  Freq  Var
BETr177/34.9BETHEL VORTAC114.1014E

 
NDB name  Hdg/Dist  Freq  Var  ID
OSCARVILLE177/35.025111EOSE --- ... .

Airport Services

Airframe service: NONE
Powerplant service: NONE
Bottled oxygen: NONE
Bulk oxygen: NONE

Runway Information

Runway 17/35

Dimensions: 3242 x 60 ft. / 988 x 18 m
Surface: gravel, in good condition
Runway edge lights: medium intensity
GRASS AND BRUSH SURROUNDS RY LGTS.
RUNWAY 17  RUNWAY 35
Latitude: 60-13.084597N60-12.559118N
Longitude: 162-02.549567W162-02.718668W
Elevation: 25.2 ft.23.1 ft.
Traffic pattern: leftleft
Runway heading: 174 magnetic, 189 true354 magnetic, 009 true
Visual slope indicator: 4-light PAPI on left (3.00 degrees glide path)4-light PAPI on left (3.00 degrees glide path)
Runway end identifier lights: yesyes
Touchdown point: yes, no lightsyes, no lights
Obstructions: 3 ft. brush, 8 ft. from runway, 58 ft. right of centerline5 ft. brush, 22 ft. from runway, 60 ft. left and right of centerline

Airport Ownership and Management from official FAA records

Ownership: Publicly-owned
Owner: ALASKA DOT&PF CENTRAL REGION
PO BOX 196900
ANCHORAGE, AK 99519-6900
Phone (907) 269-0783
Manager: LAWRENCE DAVIS
BOX 505
BETHEL, AK 99559
Phone (907) 543-2498

Airport Operational Statistics

Aircraft operations: avg 38/week *
100% air taxi
* for 12-month period ending 31 December 2016

Additional Remarks

RY CONDITION NOT MONITORED; RECOMMEND VISUAL INSPECTION PRIOR TO USING.
WX CAMERA AVBL ON INTERNET AT HTTP://AVCAMS.FAA.GOV
BIRDS INVOF ARPT.
300 FT TOWER APRXLY 1.1 MILIES EAST OF ARPT.
COLD TEMPERATURE RESTRICTED AIRPORT. ALTITUDE CORRECTION REQUIRED AT OR BELOW -38C.

Instrument Procedures

NOTE: All procedures below are presented as PDF files. If you need a reader for these files, you should download the free Adobe Reader.

NOT FOR NAVIGATION. Please procure official charts for flight.
FAA instrument procedures published for use from 23 May 2019 at 0901Z to 20 June 2019 at 0900Z.

 
IAPs - Instrument Approach Procedures
RNAV (GPS) RWY 17 **CHANGED**   download (161KB)
RNAV (GPS) RWY 35 **CHANGED**   download (162KB)

Other nearby airports with instrument procedures:

PAQH - Quinhagak Airport (28 nm S)
PANA - Napakiak Airport (29 nm N)
PAPK - Napaskiak Airport (30 nm N)
PABE - Bethel Airport (34 nm N)
PFKW - Kwethluk Airport (39 nm NE)
 
Loc | Ops | Rwys | IFR | FBO | Links
Com | Nav | Svcs | Stats | Notes

Crowley
 
Area around PAEE (Eek Airport)
 
Road maps at: MapQuest Bing Google
 
Aerial photo
WARNING: Photo may not be current or correct
Aerial photo of PAEE (Eek Airport)
Photo by Security Aviation
Photo taken 20-Dec-2017
looking south over Eek.

Do you have a better or more recent aerial photo of Eek Airport that you would like to share? If so, please send us your photo.

 
Sectional chart

 
Airport distance calculator
Flying to Eek Airport? Find the distance to fly.

From to PAEE

Sunrise and sunset
Times for 19-Jun-2019
 Local
(UTC-8)
 Zulu
(UTC)
Morning civil twilight03:2811:28
Sunrise05:2213:22
Sunset00:1708:17
Evening civil twilight02:1110:11

Current date and time
Zulu (UTC)  19-Jun-2019 23:06:02
Local (UTC-8)  19-Jun-2019 15:06:02
 
METAR
PAQH 
28nm S 
191214Z AUTO 16011KT 10SM -RA FEW007 SCT020 OVC055 11/09 A3003 RMK AO2 P0000
PANA 
29nm N 
192056Z AUTO 17009G17KT 10SM OVC015 12/09 A3012 RMK AO2 SLP198 T01220094 51012
PABE 
35nm N 
192253Z 17010KT 10SM BKN021 OVC042 13/09 A3016 RMK AO2 SLPNO T01280089
PFKW 
39nm NE 
192256Z AUTO 20008KT 10SM SCT032 OVC050 13/08 A3015 RMK AO2 RAB36E47 SLP210 P0000 T01330083
PPIT 
43nm N 
192256Z AUTO 16015KT 10SM OVC016 13/11 A3014 RMK AO2 SLP206 T01280106 TSNO
TAF
PABE 
35nm N 
191742Z 1918/2018 17012KT P6SM VCSH SCT008 OVC025 FM200300 18011KT P6SM VCSH BKN050
NOTAMs
Click for the latest NOTAMs
NOTAMs are issued by the DoD/FAA and will open in a separate window not controlled by AirNav.

 

 
 

Would you like to see your business listed on this page?

 If your business provides an interesting product or service to pilots, flight crews, aircraft, or users of the Eek Airport, you should consider listing it here.  To start the listing process, click on the button below
 
Add a business
 

Other Pages about Eek Airport

Update a link
 
Copyright © AirNav, LLC. All rights reserved. Privacy Policy  Contact